Temperature
18 17 17 17 17 17 16 16 16 16 16 16 16 16 16 16 16 16 16 16 16 15 15 15 15 15 15 15 15 15 15 15 15 15 15 15 15 15
17 17 17 17 17 17 16 16 16 16 16 16 16 16 16 16 15 15 15 15 15 15 15 15 15 15 15 15 15 15 15 15 15 15 15 15 14 14
17 17 17 17 17 17 17 17 16 16 16 16 16 15 15 15 15 15 15 15 15 15 14 15 15 15 15 15 14 14 14 14 14 14 14 14 14 14
17 17 17 17 17 17 17 16 16 16 16 16 16 15 15 15 15 15 15 14 14 14 14 14 14 14 14 14 14 14 14 14 14 14 14 14 13 13
17 17 17 17 17 17 16 16 16 16 16 15 15 15 15 15 14 14 14 14 14 14 14 14 14 14 13 13 14 14 13 13 13 13 13 13 13 13
17 17 17 17 17 16 16 16 16 16 16 15 15 15 15 14 14 14 14 14 14 13 13 13 13 13 13 13 13 13 13 13 13 13 13 13 12 12
17 17 17 17 17 16 16 16 16 16 15 15 15 15 14 14 14 14 14 13 13 13 13 13 13 13 13 13 13 12 12 12 12 12 12 12 12 12
17 17 17 17 16 16 16 16 16 15 15 15 15 14 14 14 14 13 13 13 13 13 13 13 13 13 12 12 12 12 12 12 12 12 12 12 11 11
16 16 16 16 16 16 16 16 15 15 15 15 15 14 14 14 13 13 13 13 13 12 12 12 12 12 12 12 12 12 12 11 11 11 11 11 11 11
16 16 16 16 16 16 16 15 15 15 15 15 14 14 14 13 13 13 13 12 12 12 12 12 12 12 12 11 11 11 11 11 11 11 11 11 11 10
16 16 16 16 16 15 15 15 15 15 14 14 14 14 13 13 13 12 12 12 12 12 12 11 12 12 11 11 11 11 11 11 11 11 10 10 10 10
16 16 15 15 15 15 15 15 14 14 14 14 14 13 13 13 12 12 12 12 12 11 11 11 11 11 11 11 11 11 11 10 10 10 10 10 10 10
15 15 15 15 15 15 14 14 14 14 14 13 13 13 13 12 12 12 12 11 11 11 11 11 11 11 11 11 11 10 10 10 10 10 10 9 9 9
15 15 15 14 14 14 14 14 13 13 13 13 13 12 12 12 12 12 11 11 11 11 11 11 11 11 10 10 10 10 10 10 10 9 9 9 9 9
14 14 14 13 13 13 13 13 13 13 12 12 12 12 12 12 12 11 11 11 11 11 11 10 10 10 10 10 10 10 10 9 9 9 9 9 9 9
13 13 13 13 13 13 12 12 12 12 12 12 12 12 12 12 11 11 11 11 11 11 10 10 10 10 10 10 10 9 9 9 9 9 9 9 9 8
13 13 13 12 12 12 12 12 12 11 11 11 11 11 11 11 11 11 11 11 10 10 10 10 10 10 10 10 9 9 9 9 9 9 9 8 8 8
12 12 12 12 12 12 11 11 11 11 11 11 11 11 11 11 11 11 10 10 10 10 10 10 10 9 9 9 9 9 9 9 9 8 8 8 8 8
12 11 11 11 11 11 11 11 11 11 11 10 10 11 10 10 10 10 10 10 10 10 10 9 9 9 9 9 9 9 8 8 8 8 8 8 8 8
11 11 11 11 11 10 10 10 10 10 10 10 10 10 10 10 10 10 10 9 9 9 9 9 9 9 8 8 8 8 8 8 8 8 8 7 7 7
11 10 10 10 10 10 10 10 10 10 10 10 10 10 10 9 9 9 9 9 9 9 9 9 9 9 8 8 8 8 8 8 8 7 7 7 7 7
10 10 10 10 10 10 10 10 10 10 9 9 9 9 9 9 9 9 9 9 8 8 8 8 8 8 8 8 8 8 7 7 7 7 7 7 6 6
10 10 10 10 10 9 9 9 9 9 9 9 9 9 9 9 9 9 8 8 8 8 8 8 8 8 7 7 7 7 7 7 7 7 6 6 6 6
Wind_Speed
4 4 4 3 3 3 3 3 3 2 2 2 1 1 0 1 1 1 1 2 2 3 3 3 3 2 2 2 1 1 1 2 3 4 4 5 6 6
4 4 4 3 3 3 3 3 3 3 3 2 2 1 1 1 1 1 1 2 3 3 3 3 3 3 3 2 2 2 2 2 1 1 1 2 2 3
4 5 5 4 3 3 3 3 3 3 4 2 1 1 0 0 1 1 1 1 2 3 3 3 4 4 4 3 3 3 3 3 2 2 1 1 1 2
5 5 5 4 4 3 3 3 3 3 3 3 1 1 1 1 1 0 1 1 1 2 2 3 3 4 4 4 4 4 4 4 4 3 2 2 2 2
6 6 6 5 4 3 4 3 3 3 3 3 2 1 1 1 0 0 0 1 1 1 1 1 2 3 3 4 4 4 4 4 4 4 4 4 3 3
5 6 6 6 6 5 4 4 3 3 3 2 2 1 1 1 1 1 0 1 1 1 1 1 1 2 2 2 3 3 3 3 4 4 4 5 4 3
5 5 6 6 7 6 5 5 5 4 3 3 2 2 1 1 2 1 1 0 1 1 0 1 1 1 1 1 1 2 2 3 3 3 4 4 4 5
5 5 4 5 6 7 7 7 7 6 5 4 3 3 3 3 2 2 1 1 1 0 0 1 0 0 0 0 0 1 2 2 2 2 3 3 4 4
6 5 4 4 5 5 5 5 6 7 8 6 5 5 4 5 4 3 3 2 2 1 1 1 0 1 0 0 1 2 1 1 2 2 2 2 3 3
7 7 6 6 6 6 5 4 4 4 5 5 5 5 4 4 5 4 3 2 0 0 1 1 1 1 0 0 1 2 1 1 1 1 1 1 2 2
6 6 7 6 7 8 6 5 4 3 2 4 4 3 4 5 5 4 3 2 1 1 1 2 1 1 1 1 1 1 1 1 1 1 1 1 1 1
4 5 7 7 7 9 7 6 6 4 3 2 2 2 2 4 6 5 4 3 2 2 2 2 1 1 1 1 1 1 1 2 2 2 2 2 2 1
5 5 5 7 8 9 8 6 7 5 4 4 3 2 1 2 3 3 4 4 3 2 3 3 2 2 1 1 1 1 1 1 1 1 2 2 2 2
7 6 5 8 8 8 7 6 7 5 3 3 3 3 3 3 2 3 4 4 3 3 4 4 2 3 3 2 1 1 1 1 1 1 1 2 2 2
5 6 6 8 7 6 6 7 6 5 4 4 4 4 3 3 2 2 2 2 2 1 2 3 3 3 3 3 2 1 1 1 1 1 1 2 2 2
4 4 5 6 5 4 4 4 4 4 5 5 4 3 2 2 2 2 2 2 2 0 1 1 3 4 3 3 2 2 2 1 1 1 1 1 2 2
3 2 2 3 3 3 3 3 3 4 4 4 3 3 3 3 2 2 2 3 3 2 1 0 0 1 2 3 2 2 2 1 1 1 1 1 2 2
5 4 4 4 5 5 5 4 4 4 4 4 4 4 4 4 3 2 2 3 3 3 3 1 1 1 1 1 3 3 2 2 2 2 2 2 2 2
4 5 5 5 5 5 5 5 5 5 4 5 5 4 4 4 4 3 3 3 3 3 3 2 3 3 3 3 2 4 4 2 2 2 2 2 3 3
4 5 5 5 5 5 5 5 5 4 4 5 5 5 5 4 4 4 4 4 4 3 3 3 4 4 5 4 3 2 4 3 3 3 2 2 2 2
5 5 4 5 5 5 5 4 5 5 4 5 5 5 5 4 4 4 4 5 5 4 5 5 4 5 3 2 2 1 2 4 4 3 2 2 1 2
5 5 5 5 5 5 5 5 5 5 5 5 5 5 5 5 5 6 5 5 5 5 5 3 2 3 3 3 4 3 2 1 2 2 3 3 2 2
5 5 4 5 5 4 5 5 6 5 5 5 5 5 5 5 4 4 4 5 4 4 3 3 2 2 3 3 3 3 2 2 1 1 1 2 3 3
Wind_Direction
219 212 213 219 211 215 211 204 209 245 266 255 270 327 339 14 2 41 60 53 54 47 44 42 40 31 18 3 343 308 293 278 265 260 263 268 268 263
209 204 209 215 208 209 208 205 206 213 242 244 238 285 325 19 14 34 47 47 47 44 47 52 52 48 47 50 43 28 15 353 325 293 292 300 292 286
206 203 213 204 202 204 196 193 197 198 227 253 243 265 236 222 13 24 59 59 42 41 48 51 51 52 55 58 53 45 40 34 26 14 3 353 5 4
212 203 211 201 205 207 199 200 203 200 205 234 247 260 240 232 253 255 67 66 43 31 48 57 62 64 63 63 61 58 54 47 40 33 30 42 52 48
210 207 210 199 208 208 207 210 209 202 200 209 222 228 230 196 194 271 107 23 35 33 64 73 89 84 73 66 67 64 57 51 48 47 43 49 50 44
213 209 207 205 210 212 211 209 199 191 192 201 220 224 225 201 177 215 267 354 341 15 40 84 100 99 78 64 66 67 63 57 55 55 59 58 54 50
217 217 214 208 207 205 205 203 195 193 185 196 210 213 217 207 213 206 224 307 317 324 349 41 70 62 49 42 59 65 67 61 60 64 65 62 56 48
215 219 217 212 208 204 204 199 194 196 197 197 207 215 222 222 211 200 192 197 247 250 215 304 97 276 357 97 137 114 84 69 62 64 64 63 57 57
211 209 216 216 203 204 201 200 208 210 199 193 200 213 212 209 195 197 204 210 226 221 187 240 261 258 267 220 207 164 122 89 76 76 74 69 70 76
210 207 207 211 207 197 188 189 206 220 216 211 211 215 211 197 196 200 202 195 202 163 181 209 239 249 272 247 215 183 174 154 126 118 114 101 92 89
216 210 207 210 205 185 179 186 194 216 198 186 197 204 185 169 165 151 153 165 208 217 195 196 207 232 257 270 246 201 199 203 213 207 184 163 137 120
223 218 209 205 191 180 185 188 198 207 182 163 163 188 183 168 168 177 180 183 190 208 195 186 175 165 224 238 243 239 238 225 226 220 204 177 155 140
222 224 218 195 186 184 186 197 203 187 176 168 164 167 168 176 185 191 192 187 189 208 188 179 173 174 197 228 244 239 243 235 222 230 205 194 175 167
223 222 212 187 186 189 193 196 178 163 163 164 171 184 196 205 210 202 192 194 198 203 187 182 185 182 182 202 227 238 249 231 216 227 231 216 205 207
226 210 195 186 181 188 191 180 169 171 175 183 196 207 212 212 191 174 161 158 152 131 146 182 187 181 189 201 208 206 225 245 231 251 226 213 217 208
223 197 181 177 178 180 179 179 182 188 190 197 203 207 191 178 177 179 175 168 154 125 58 160 189 181 190 200 200 211 216 221 241 262 243 233 218 209
193 180 178 178 186 190 190 193 193 189 197 205 200 196 191 187 190 184 181 171 180 195 202 115 182 181 187 184 200 216 225 240 245 231 223 248 244 227
174 191 199 199 201 200 199 203 205 206 206 202 199 197 194 191 189 186 183 185 190 199 200 188 157 132 140 215 212 216 218 228 236 221 217 236 257 256
183 203 205 207 210 206 202 204 210 209 202 200 200 198 195 191 188 190 189 190 198 205 206 192 184 186 211 242 239 206 215 231 224 222 229 236 251 259
205 208 209 208 209 208 205 206 205 200 199 200 199 197 195 191 189 194 197 200 203 209 208 202 202 208 217 232 236 231 213 215 216 228 242 253 274 282
218 217 212 209 208 207 204 202 202 200 199 198 199 197 194 191 195 201 205 202 206 211 215 220 226 224 214 190 214 241 225 213 206 216 220 236 275 287
219 218 216 210 208 206 202 198 198 198 198 201 202 202 199 197 201 205 208 210 213 217 222 224 203 189 194 209 227 238 240 232 221 199 196 200 223 240
218 216 212 207 205 202 198 196 199 204 203 203 204 206 204 203 206 206 208 211 213 212 213 215 203 198 209 215 222 231 241 239 226 224 258 250 228 245
Height
1533 1534 1534 1534 1534 1534 1534 1534 1535 1533 1532 1531 1532 1532 1531 1531 1530 1530 1529 1528 1528 1527 1526 1526 1525 1524 1524 1523 1523 1523 1523 1523 1522 1522 1523 1523 1523 1523
1530 1530 1531 1531 1531 1531 1531 1531 1531 1531 1530 1529 1529 1529 1529 1528 1528 1528 1527 1527 1526 1525 1524 1523 1522 1522 1521 1521 1520 1520 1520 1519 1519 1519 1519 1519 1519 1519
1527 1527 1527 1528 1528 1528 1528 1527 1527 1527 1527 1527 1526 1526 1526 1526 1525 1525 1525 1525 1524 1523 1522 1521 1520 1520 1519 1519 1518 1517 1517 1516 1516 1515 1515 1515 1515 1515
1523 1524 1524 1524 1524 1525 1524 1524 1524 1524 1524 1524 1523 1523 1523 1523 1523 1523 1523 1522 1522 1521 1520 1519 1518 1518 1517 1517 1516 1515 1514 1514 1513 1513 1512 1512 1512 1511
1519 1520 1520 1520 1521 1521 1521 1521 1521 1521 1521 1521 1520 1520 1520 1520 1520 1520 1520 1519 1519 1519 1518 1517 1516 1516 1515 1515 1514 1513 1512 1512 1511 1511 1510 1509 1509 1508
1515 1516 1516 1516 1517 1517 1517 1517 1517 1517 1517 1517 1517 1516 1517 1517 1517 1517 1517 1517 1517 1516 1516 1515 1515 1514 1514 1513 1512 1512 1511 1510 1509 1508 1508 1507 1506 1506
1511 1512 1512 1513 1513 1513 1513 1513 1514 1513 1513 1513 1513 1513 1513 1513 1513 1514 1514 1514 1513 1514 1513 1513 1513 1512 1512 1511 1511 1510 1509 1508 1508 1507 1506 1505 1505 1504
1506 1506 1507 1508 1509 1509 1509 1509 1510 1510 1509 1509 1509 1510 1510 1510 1510 1510 1511 1511 1511 1512 1511 1511 1511 1510 1510 1509 1509 1508 1508 1507 1506 1505 1504 1504 1503 1502
1501 1501 1502 1503 1503 1504 1504 1505 1505 1506 1506 1506 1506 1506 1507 1507 1508 1508 1508 1508 1508 1508 1509 1508 1509 1508 1508 1507 1507 1506 1506 1505 1504 1503 1503 1502 1501 1500
1495 1496 1497 1497 1498 1498 1499 1500 1501 1501 1502 1501 1502 1502 1503 1504 1504 1505 1505 1505 1505 1505 1506 1506 1506 1506 1506 1505 1505 1505 1504 1503 1503 1502 1501 1500 1499 1498
1490 1490 1491 1492 1493 1493 1494 1494 1495 1496 1497 1497 1498 1499 1499 1500 1500 1501 1501 1502 1501 1502 1503 1503 1503 1503 1503 1503 1503 1503 1502 1502 1501 1500 1499 1498 1498 1497
1484 1485 1485 1486 1487 1488 1489 1490 1490 1491 1492 1493 1494 1495 1495 1496 1497 1497 1498 1498 1498 1499 1499 1500 1500 1500 1500 1501 1501 1500 1500 1499 1499 1498 1497 1497 1496 1495
1478 1479 1480 1481 1482 1483 1484 1485 1486 1487 1488 1489 1490 1491 1491 1492 1493 1494 1494 1495 1495 1496 1497 1497 1497 1497 1498 1498 1498 1498 1498 1497 1497 1496 1495 1495 1494 1493
1473 1473 1474 1475 1476 1478 1479 1480 1482 1483 1483 1484 1485 1486 1487 1488 1489 1490 1491 1491 1492 1493 1493 1494 1494 1494 1495 1495 1495 1495 1494 1494 1494 1493 1493 1493 1492 1491
1467 1468 1469 1469 1470 1472 1474 1475 1477 1478 1479 1480 1481 1482 1483 1484 1485 1486 1487 1488 1489 1489 1490 1490 1491 1491 1491 1491 1491 1491 1491 1491 1491 1490 1490 1490 1489 1488
1463 1463 1464 1465 1466 1467 1469 1470 1472 1473 1474 1476 1477 1478 1479 1480 1481 1482 1483 1484 1485 1485 1486 1487 1487 1488 1488 1488 1488 1488 1488 1488 1487 1487 1487 1487 1486 1486
1458 1458 1459 1460 1461 1462 1464 1465 1467 1469 1470 1471 1473 1474 1475 1476 1477 1478 1479 1480 1481 1481 1482 1483 1484 1484 1484 1485 1484 1484 1484 1484 1484 1484 1484 1484 1483 1483
1453 1453 1454 1454 1455 1456 1458 1460 1462 1463 1465 1467 1468 1469 1470 1471 1472 1474 1475 1476 1477 1478 1478 1479 1480 1480 1481 1480 1481 1481 1481 1481 1481 1481 1481 1480 1480 1479
1447 1448 1449 1450 1451 1452 1453 1455 1456 1458 1461 1462 1463 1465 1466 1466 1468 1469 1470 1472 1473 1474 1475 1475 1476 1476 1476 1476 1476 1477 1477 1477 1477 1477 1477 1476 1476 1476
1442 1442 1444 1445 1446 1447 1448 1449 1451 1453 1455 1457 1459 1460 1461 1462 1463 1465 1466 1467 1468 1469 1470 1471 1471 1472 1472 1473 1473 1473 1474 1474 1473 1473 1473 1473 1473 1473
1437 1438 1439 1440 1441 1443 1444 1445 1447 1448 1450 1452 1453 1455 1456 1457 1458 1460 1462 1463 1464 1464 1465 1466 1467 1468 1469 1469 1469 1469 1470 1470 1470 1470 1469 1469 1469 1469
1433 1433 1434 1435 1437 1438 1439 1440 1442 1444 1445 1447 1448 1450 1451 1453 1454 1455 1457 1458 1459 1459 1460 1462 1463 1464 1465 1465 1464 1465 1465 1466 1466 1466 1466 1466 1466 1465
1428 1429 1430 1431 1432 1434 1435 1436 1437 1439 1441 1442 1444 1446 1447 1448 1449 1450 1452 1453 1454 1455 1456 1457 1458 1459 1460 1460 1461 1461 1461 1462 1462 1462 1463 1463 1463 1463